Location: Unspecified
(0.0000°N, 0.0000°E)
Time: 20:00:11
(UTC+00:00)

STARLINK-34713 - Visible Passes

Search period start: 10 November 2025 00:00
Search period end: 20 November 2025 00:00
Orbit: 446 x 448 km, 53.2° (Epoch: 08 November)

Date Brightness Start Highest point End Pass type
(mag) Time Alt. Az. Time Alt. Az. Time Alt. Az.
14 Nov 5.1 18:25:51 10° NNE 18:27:18 13° NE 18:27:18 13° NE visible
15 Nov 4.7 19:21:44 10° NW 19:24:57 36° SW 19:26:51 20° S visible
16 Nov 3.4 18:41:46 10° NW 18:45:13 69° SW 18:48:42 10° SSE visible
19 Nov 5.9 05:02:19 10° S 05:05:13 24° SE 05:08:05 10° ENE visible
19 Nov 6.5 18:19:53 10° W 18:21:57 15° SW 18:24:02 10° SSW visible
